NOAA 16 DEB

Satellite information

Favourite Embed

Satellite Type and Status

DEBRISIN ORBIT

Key statistics

Satellite NOAA 16 DEB at a glance.

Uptime

8995

Days in orbit

Revolutions

≈ 14.7

Per day

Orbit

SSO

Sun Synchronous Orbit

Inclination

99.0

Latest

Satellite identification and parameters

Extended collection of information and parameters for NOAA 16 DEB.

Object identification

Identified? True

Debris? True

Object name: NOAA 16 DEB

International designator: 2000-055SK

Object number (NORAD): 42391

Object ID (CCSDS): 42391

Country: UNITED STATES OF AMERICA (US)

Current information (Y/N): Y

RCS size: SMALL

Orbital parameters

Period: 97.744 minutes

Inclination: 99.0201 deg

SMA: 7028.878 km

Apoapsis: 658.037 km

Periapsis: 643.45 km

RAAN: 352.3732 deg

Eccentricy: 0.0010377

Argument of periapsis: 212.0024 deg

Mean anomaly: 148.0551 deg

Mean motion: 14.73240734 rev/day

Mean motion (dot): 0.00029934 rev/day2

B* drag term: 0.0046204 1/REarth

Two-line elements (TLE)

Creation date: May 8, 2025, 3:01 a.m.

Reference frame: TEME

Reference center: EARTH

Epoch: May 7, 2025, 1:56 a.m. UTC

TLE line 0: 0 NOAA 16 DEB

TLE line 1: 1 42391U 00055SK 25127.08112639 .00029934 00000-0 46204-2 0 9991

TLE line 2: 2 42391 99.0201 352.3732 0010377 212.0024 148.0551 14.73240734479162

Live tracking on map

Real-time ground track for satellite NOAA 16 DEB.

In-orbit conjunctions

A list of the most updated potential collisions computed for object NOAA 16 DEB.

Target Orbit TCA Probability of collision Miss distance Type
CZ-6A DEB LEO 2025-01-05 18:03:26 0.0002242433 193.0 (m) DEBRIS
CZ-6A DEB LEO 2024-11-14 04:22:13 0.0001584596 906.0 (m) DEBRIS
CZ-6A DEB LEO 2024-11-12 10:16:14 0.0001647731 630.0 (m) DEBRIS

Associated space launch

The NOAA K, L and M POES satellites begin the fifth generation of improved environmental monitoring in support of NOAA missions. The instrument payload has significant improvements and additions/deletions. The instrument changes have effected the spacecraft subsystems and data formats.

NOAA 16 DEB was lifted into orbit during the mission ‘Titan II SLV | NOAA 16’, on board a Titan II SLV space rocket.

The launch took place on Sept. 21, 2000, 10:22 a.m. from Space Launch Complex 4W.

For more information about the launch, click the button.

Launch to space Titan II SLV | NOAA 16
Titan II SLV | NOAA 16

Agency: N/A

Status: Launch Successful

Launch date: Sept. 21, 2000, 10:22 a.m. UTC

Rocket: Titan II SLV

Launch pad: Space Launch Complex 4W

Location: Vandenberg SFB, CA, USA

...

Latest news about this satellite

There are no fresh news available about this satellite. Check back as we update our databases every day.


Newsletter sign-up

Weekly statistics, charts and insights to help you stay on top of the space industry.